Regional Weather Roundup
Issued by NWS Charleston, SC

Current Version | Previous Version | Text Only | Print | Product List | Glossary Off
Versions: 1 2 3 4 5 6 7 8 9 10 11 12 13 14 15 16 17 18 19 20 21 22 23 24 25 26 27 28 29 30 31 32 33 34 35 36 37 38 39 40 41 42 43 44 45 46 47 48 49 50

000
ASUS42 KCHS 050912
RWRCHS

REGIONAL WEATHER ROUNDUP
NATIONAL WEATHER SERVICE CHARLESTON SC
500 AM EDT TUE MAY 05 2015

NOTE: "FAIR" INDICATES FEW OR NO CLOUDS BELOW 12,000 FEET WITH NO
SIGNIFICANT WEATHER AND/OR OBSTRUCTIONS TO VISIBILITY.

NOT ALL STATIONS ARE QUALITY CONTROLLED BY THE NATIONAL
WEATHER SERVICE. USE DATA WITH CAUTION...ESPECIALLY
DEWPOINT OBSERVATIONS.

SCZ027-030-031-034>040-042>050-051000-
...SOUTHEAST SOUTH CAROLINA...

CITY           SKY/WX    TMP DP  RH WIND       PRES   REMARKS
N CHARLESTON   CLEAR     58  55  90 CALM      30.29S
WATERFRONT PRK   N/A     64 N/A N/A N3          N/A
MOUNT PLEASANT FAIR      57  55  94 MISG      30.29S
PINOPOLIS      NOT AVBL
MONCKS CORNER  FAIR      55  52  88 CALM      30.30R
SUMMERVILLE    FAIR      52  52 100 CALM      30.30S
BEAUFORT MCAS  CLEAR     60  57  89 NE6       30.27F
BEAUFORT ARPT  FAIR      63  61  94 CALM      30.27S
HILTON HEAD IS CLEAR     64  63  94 CALM      30.28S FOG
WALTERBORO     SUNNY     50  50 100 CALM      30.29F
ALLENDALE      FAIR      57  55  94 CALM      30.28F

...SOUTHERN MIDLANDS AND PEE DEE...

CITY           SKY/WX    TMP DP  RH WIND       PRES   REMARKS
GEORGETOWN     NOT AVBL
KINGSTREE      NOT AVBL
ORANGEBURG     CLEAR     54  52  93 NE3       30.30S
BARNWELL       FAIR      55  54  94 CALM      30.30S
AIKEN          FAIR      54  50  87 CALM      30.33S
MANNING        FAIR      50  43  76 CALM      30.31S HAZE
COLUMBIA       CLEAR     55  51  86 CALM      30.30S
SUMTER         CLEAR     54  52  93 E2        30.30R
FLORENCE       CLEAR     55  53  93 CALM      30.32S
MYRTLE BEACH     N/A     57  54  88 CALM      30.33S
N MYRTLE BEACH CLEAR     54  53  97 CALM      30.31S

$$

GAZ063-065-086>088-099>101-113>116-118-119-134>141-150-051000-
...SOUTHEAST GEORGIA...

CITY           SKY/WX    TMP DP  RH WIND       PRES   REMARKS
SAVANNAH ARPT  CLEAR     59  56  89 NE5       30.27S
HUNTER AAF     CLEAR     62  61  97 CALM      30.24S
FORT STEWART   CLEAR     58  56  93 CALM      30.24S
STATESBORO       N/A     53  53 100 CALM      30.27F
SYLVANIA       SUNNY     54  54  99 CALM      30.29S
CLAXTON        FAIR      54  54 100 CALM      30.26F

...CSRA...CENTRAL AND FAR SOUTHEAST GEORGIA...

CITY           SKY/WX    TMP DP  RH WIND       PRES   REMARKS
THOMSON        CLEAR     55  55 100 CALM      30.34S
AUGUSTA-BUSH   CLEAR     52  51  97 CALM      30.30R
AUGUSTA-DANIEL CLEAR     62  55  77 E3        30.30S
SWAINSBORO     NOT AVBL
VIDALIA        CLEAR     59  57  94 CALM      30.27S
EASTMAN        FOG       53  53 100 CALM      30.29S VSB 1/2
HAZLEHURST     FAIR      61  59  94 E3        30.25S
ALMA           CLEAR     59  56  89 CALM      30.24F
WAYCROSS       CLEAR     60  59  96 CALM      30.24S
JESUP          FAIR      61  61 100 CALM      30.25S
BAXLEY         FAIR      61  59  94 NE3       30.25S
BRUNSWICK        N/A     59  55  88 CALM      30.24S VSB 1/2
SAINT SIMONS   CLEAR     67  59  75 NE6       30.23S

$$

SCZ027-028-034-036>038-045-046-048>050-GAZ119-141-051000-
...LAKE AND SUPPLEMENTAL COASTAL OBSERVATIONS...

STATION/POSITION TIME  TEMP    WIND        PRES    WAVE   SWELL
                       AIR SEA DIR/SP/G            HT/PER HT/PER/DIR
                 (UTC) (F)     (DEG/KT/KT) (MB)    (FT/S) (FT/S/D)
UPR LAKE MARION  NOT AVBL
WINYAH BAY       NOT AVBL
LAKE MURRAY      0800   66     200/  3/  5 1025.7S
ACE BASIN NERRS  NOT AVBL
FORT PULASKI     0800   70 70   70/  8/  9 1025.2F
SAPELO ISLAND    0800   64      50/  4     1024.0S

$$

ANZ835-935-AMZ111-154-330-350-352-354-370-450-454-472-051000-
...C-MAN AND BUOY OBSERVATIONS...

STATION/POSITION TIME  TEMP    WIND        PRES    WAVE   SWELL
                       AIR SEA DIR/SP/G            HT/PER HT/PER/DIR
                 (UTC) (F)     (DEG/KT/KT) (MB)    (FT/S) (FT/S/D)
BUOY 41004       0850   72 73   90/ 12/ 14 1024.9F   4/ 6   3/ 6
BUOY 41008       0850   70 70   60/ 12/ 14 1024.0F   4/ 6   3/110/ 6
FOLLY BEACH CMAN 0800   70      70/  6/  6 1025.6F
CAPERS NEARSHORE 0808   70      80/  8/ 10 1025.7F
FRIPP NEARSHORE  0800   71      90/  8/ 10 1024.3F


STATION/POSITION TIME  TEMP    WIND        PRES    WAVE   SWELL
                       AIR SEA DIR/SP/G            HT/PER HT/PER/DIR
                 (UTC) (F)     (DEG/KT/KT) (MB)    (FT/S) (FT/S/D)
5E ST. MARYS GA  0821      73                N/A     4/ 6   2/ 80/11
FRYING PAN BUOY  0850   72 71  120/ 10/ 12 1027.1F   4/ 6   3/130/ 6
BUOY 41025       0850   73 77  190/ 12/ 14 1027.3R   3/ 9   2/ 60/ 9
CAPE LOOKOUT NC  0800   66     170/  2/  4 1026.9F
BUOY 41002       0850   68 70   80/ 14/ 16 1026.1F   5/ 9   3/ 50/ 9
BUOY 41010       0820   74 78   80/ 16/ 19 1021.4F
ST AUGUSTINE FL  0900   71 71   50/ 10/ 12 1022.8F


$$


USA.gov is the U.S. government's official web portal to all federal, state and local government web resources and services.